When you browse on this site, cookies collect data to enhance your experience and personalize the content and advertising you see.
Visit our Privacy Policy to learn more. By continuing to use the site, you agree to this use of cookies and data.
  • In United Kingdom
  • List of Countries
  • For 7 days
  • Water Temperature
  • Satellite Maps
  • Weather Map
  • Weather Widgets
  • user-avatar
    Login

    Hourly Weather Yangibino

    Today, 26 March, Tuesday

    Time Temperature Precipitation Wind Pressure Humidity
    00:00 +17°C° 0 mm 5 mps 715 mmHg 39%
    01:00 +17°C° 0 mm 5 mps 715 mmHg 39%
    02:00 +17°C° 0 mm 5 mps 715 mmHg 39%
    03:00 +17°C° 0 mm 5 mps 715 mmHg 38%
    04:00 +17°C° 0 mm 5 mps 714 mmHg 38%
    05:00 +17°C° 0 mm 5 mps 714 mmHg 38%
    06:00 +18°C° 0 mm 4 mps 715 mmHg 38%
    07:00 +19°C° 0 mm 4 mps 715 mmHg 37%
    08:00 +19°C° 0 mm 4 mps 715 mmHg 35%
    09:00 +20°C° 0 mm 5 mps 715 mmHg 33%
    10:00 +21°C° 0 mm 5 mps 715 mmHg 32%
    11:00 +20°C° 0.1 mm 5 mps 715 mmHg 40%
    12:00 +19°C° 0.1 mm 5 mps 715 mmHg 47%
    13:00 +17°C° 0.1 mm 5 mps 715 mmHg 55%
    14:00 +16°C° 0.2 mm 5 mps 715 mmHg 57%
    15:00 +16°C° 0.2 mm 5 mps 715 mmHg 60%
    16:00 +15°C° 0.2 mm 5 mps 715 mmHg 63%
    17:00 +14°C° 1.1 mm 5 mps 716 mmHg 68%
    18:00 +14°C° 1.1 mm 6 mps 716 mmHg 72%
    19:00 +13°C° 1.1 mm 6 mps 716 mmHg 76%
    20:00 +13°C° 1.8 mm 5 mps 716 mmHg 78%
    21:00 +13°C° 1.8 mm 5 mps 716 mmHg 80%
    22:00 +13°C° 1.8 mm 4 mps 716 mmHg 82%
    23:00 +13°C° 0.6 mm 4 mps 716 mmHg 82%

    Tomorrow, 27 March, Wednesday

    Time Temperature Precipitation Wind Pressure Humidity
    00:00 +13°C° 0.6 mm 3 mps 715 mmHg 82%
    01:00 +13°C° 0.6 mm 3 mps 715 mmHg 81%
    02:00 +14°C° 0 mm 2 mps 715 mmHg 81%
    03:00 +14°C° 0 mm 2 mps 715 mmHg 80%
    04:00 +14°C° 0 mm 2 mps 715 mmHg 79%
    05:00 +14°C° 0.1 mm 2 mps 715 mmHg 76%
    06:00 +13°C° 0.1 mm 3 mps 714 mmHg 74%
    07:00 +13°C° 0.1 mm 3 mps 714 mmHg 72%
    08:00 +14°C° 0.8 mm 3 mps 714 mmHg 73%
    09:00 +14°C° 0.8 mm 3 mps 714 mmHg 75%
    10:00 +14°C° 0.8 mm 3 mps 714 mmHg 77%
    11:00 +16°C° 0.3 mm 3 mps 713 mmHg 72%
    12:00 +18°C° 0.3 mm 3 mps 713 mmHg 68%
    13:00 +19°C° 0.3 mm 4 mps 713 mmHg 63%
    14:00 +20°C° 0.1 mm 3 mps 713 mmHg 63%
    15:00 +20°C° 0.1 mm 3 mps 712 mmHg 64%
    16:00 +20°C° 0.1 mm 2 mps 712 mmHg 64%
    17:00 +18°C° 0.4 mm 2 mps 712 mmHg 71%
    18:00 +17°C° 0.4 mm 2 mps 712 mmHg 79%
    19:00 +16°C° 0.4 mm 1 mps 712 mmHg 86%
    20:00 +16°C° 0.3 mm 2 mps 713 mmHg 85%
    21:00 +15°C° 0.3 mm 4 mps 713 mmHg 84%
    22:00 +15°C° 0.3 mm 5 mps 713 mmHg 84%
    23:00 +15°C° 0 mm 4 mps 713 mmHg 86%

    Day after tomorrow, 28 March, Thursday

    Time Temperature Precipitation Wind Pressure Humidity
    00:00 +15°C° 0 mm 4 mps 713 mmHg 88%
    01:00 +14°C° 0 mm 4 mps 713 mmHg 91%
    02:00 +14°C° 0.3 mm 4 mps 714 mmHg 92%
    03:00 +14°C° 0.3 mm 3 mps 714 mmHg 93%
    04:00 +13°C° 0.3 mm 3 mps 714 mmHg 94%
    05:00 +13°C° 0 mm 3 mps 715 mmHg 92%
    06:00 +13°C° 0 mm 3 mps 715 mmHg 91%
    07:00 +14°C° 0 mm 3 mps 716 mmHg 89%
    08:00 +14°C° 0 mm 3 mps 716 mmHg 82%
    09:00 +16°C° 0 mm 3 mps 717 mmHg 76%
    10:00 +17°C° 0 mm 3 mps 717 mmHg 69%
    11:00 +18°C° 0 mm 3 mps 717 mmHg 62%
    12:00 +20°C° 0 mm 4 mps 717 mmHg 56%
    13:00 +21°C° 0 mm 4 mps 717 mmHg 49%
    14:00 +20°C° 0 mm 4 mps 716 mmHg 50%
    15:00 +20°C° 0 mm 4 mps 716 mmHg 50%
    16:00 +20°C° 0 mm 3 mps 716 mmHg 50%
    17:00 +19°C° 0 mm 3 mps 716 mmHg 55%
    18:00 +17°C° 0 mm 3 mps 716 mmHg 59%
    19:00 +16°C° 0 mm 2 mps 716 mmHg 64%
    20:00 +16°C° 0 mm 2 mps 716 mmHg 64%
    21:00 +15°C° 0 mm 2 mps 716 mmHg 64%
    22:00 +15°C° 0 mm 2 mps 716 mmHg 63%
    23:00 +15°C° 0 mm 2 mps 716 mmHg 62%

    29 March, Friday

    Time Temperature Precipitation Wind Pressure Humidity
    00:00 +15°C° 0 mm 2 mps 715 mmHg 61%
    01:00 +14°C° 0 mm 2 mps 715 mmHg 60%
    02:00 +14°C° 0 mm 2 mps 715 mmHg 61%
    03:00 +14°C° 0 mm 2 mps 715 mmHg 63%
    04:00 +13°C° 0 mm 2 mps 715 mmHg 64%
    05:00 +13°C° 0 mm 2 mps 715 mmHg 65%
    06:00 +13°C° 0 mm 2 mps 716 mmHg 65%
    07:00 +13°C° 0 mm 2 mps 716 mmHg 66%
    08:00 +13°C° 0 mm 3 mps 716 mmHg 63%
    09:00 +14°C° 0 mm 3 mps 716 mmHg 60%
    10:00 +15°C° 0 mm 4 mps 716 mmHg 57%
    11:00 +17°C° 0 mm 4 mps 716 mmHg 55%
    12:00 +17°C° 0 mm 4 mps 716 mmHg 52%
    13:00 +18°C° 0 mm 4 mps 716 mmHg 50%
    14:00 +17°C° 0 mm 5 mps 716 mmHg 50%
    15:00 +16°C° 0 mm 5 mps 716 mmHg 51%
    16:00 +16°C° 0 mm 5 mps 715 mmHg 51%
    17:00 +15°C° 0 mm 5 mps 716 mmHg 53%
    18:00 +14°C° 0 mm 4 mps 716 mmHg 55%
    19:00 +14°C° 0 mm 4 mps 716 mmHg 58%
    20:00 +13°C° 0 mm 3 mps 716 mmHg 59%
    21:00 +13°C° 0 mm 3 mps 717 mmHg 59%
    22:00 +12°C° 0 mm 3 mps 717 mmHg 60%
    23:00 +13°C° 0 mm 2 mps 718 mmHg 61%

    30 March, Saturday

    Time Temperature Precipitation Wind Pressure Humidity
    00:00 +13°C° 0 mm 1 mps 718 mmHg 62%
    01:00 +12°C° 0 mm 1 mps 718 mmHg 64%
    02:00 +12°C° 0 mm 1 mps 719 mmHg 65%
    03:00 +11°C° 0 mm 0 mps 719 mmHg 67%
    04:00 +10°C° 0 mm 0 mps 719 mmHg 68%
    05:00 +11°C° 0 mm 0 mps 720 mmHg 66%
    06:00 +12°C° 0 mm 1 mps 720 mmHg 64%
    07:00 +13°C° 0 mm 1 mps 721 mmHg 61%
    08:00 +14°C° 0 mm 1 mps 721 mmHg 58%
    09:00 +15°C° 0 mm 1 mps 721 mmHg 54%
    10:00 +16°C° 0 mm 1 mps 721 mmHg 51%
    11:00 +18°C° 0 mm 1 mps 721 mmHg 46%
    12:00 +19°C° 0 mm 1 mps 721 mmHg 42%
    13:00 +19°C° 0 mm 2 mps 720 mmHg 37%
    14:00 +19°C° 0 mm 2 mps 720 mmHg 36%
    15:00 +20°C° 0 mm 1 mps 720 mmHg 34%
    16:00 +20°C° 0 mm 1 mps 720 mmHg 32%
    17:00 +19°C° 0 mm 1 mps 720 mmHg 37%
    18:00 +18°C° 0 mm 1 mps 720 mmHg 42%
    19:00 +15°C° 0 mm 1 mps 720 mmHg 47%
    20:00 +15°C° 0 mm 1 mps 720 mmHg 50%
    21:00 +14°C° 0 mm 1 mps 720 mmHg 52%
    22:00 +13°C° 0 mm 0 mps 720 mmHg 54%
    23:00 +13°C° 0 mm 1 mps 720 mmHg 53%

    31 March, Sunday

    Time Temperature Precipitation Wind Pressure Humidity
    00:00 +13°C° 0 mm 1 mps 720 mmHg 52%
    01:00 +13°C° 0 mm 1 mps 720 mmHg 50%
    02:00 +13°C° 0 mm 1 mps 720 mmHg 50%
    03:00 +13°C° 0 mm 1 mps 720 mmHg 49%
    04:00 +13°C° 0 mm 1 mps 720 mmHg 48%
    05:00 +14°C° 0 mm 1 mps 720 mmHg 47%
    06:00 +14°C° 0 mm 2 mps 720 mmHg 45%
    07:00 +15°C° 0 mm 2 mps 720 mmHg 44%
    08:00 +17°C° 0 mm 2 mps 720 mmHg 39%
    09:00 +18°C° 0 mm 2 mps 720 mmHg 35%
    10:00 +20°C° 0 mm 2 mps 720 mmHg 30%
    11:00 +20°C° 0 mm 2 mps 719 mmHg 29%
    12:00 +21°C° 0 mm 3 mps 719 mmHg 28%
    13:00 +22°C° 0 mm 3 mps 718 mmHg 27%
    14:00 +22°C° 0 mm 4 mps 718 mmHg 27%
    15:00 +22°C° 0 mm 4 mps 718 mmHg 27%
    16:00 +22°C° 0 mm 4 mps 717 mmHg 27%
    17:00 +20°C° 0 mm 3 mps 718 mmHg 32%
    18:00 +19°C° 0 mm 2 mps 718 mmHg 37%
    19:00 +19°C° 0 mm 1 mps 718 mmHg 42%
    20:00 +17°C° 0 mm 2 mps 718 mmHg 45%
    21:00 +16°C° 0 mm 2 mps 718 mmHg 48%
    22:00 +14°C° 0 mm 3 mps 718 mmHg 52%
    23:00 +13°C° 0 mm 3 mps 718 mmHg 56%
    Show more